Location: Unspecified
(0.0000°N, 0.0000°E)
Time: 16:31:12
(UTC+00:00)

Amateur Radio Satellites - All Passes

Search period start: 27 July 2017 16:01
Search period end: 28 July 2017 16:01
Location: Unspecified, 0.0000°N, 0.0000°E

Satellite Date Start Highest point End Downlink Frequencies (MHz)
Time Altitude Azimuth
KKS-1 27 Jul 16:04:25 16:08:23 32° 102° (ESE) 16:12:21 437.445
JUGNU 27 Jul 16:06:58 16:12:39 50° 159° (SSE) 16:18:22 437.505
ISS 27 Jul 16:07:22 16:10:08 25° 126° (SE) 16:12:52 437.550
AO-7 27 Jul 16:15:47 16:22:52 32° 253° (WSW) 16:30:00 .
CUBESAT XI-V 27 Jul 16:22:12 16:26:50 61° 282° (WNW) 16:31:30 437.345
YUBILEINY 27 Jul 16:22:52 16:28:23 18° 93° (E) 16:33:51 435.215
STARS 27 Jul 16:27:38 16:30:58 21° 102° (ESE) 16:34:17 437.465
nSIGHT-1 27 Jul 16:46:41 16:49:54 64° 305° (NW) 16:53:06 .
DOVE 4 27 Jul 16:53:24 16:57:48 50° 78° (ENE) 17:02:27 437.250
SRMSAT 27 Jul 17:12:59 17:17:32 22° 164° (SSE) 17:22:05 437.500
XW-2D 27 Jul 17:15:28 17:18:39 26° 79° (E) 17:21:49 145.860 - 145.880
XW-2B 27 Jul 17:25:19 17:28:48 35° 79° (E) 17:32:15 145.730 - 145.750
NUDT-PHONESAT 27 Jul 17:40:00 17:43:32 42° 79° (E) 17:47:01 437.300
XW-2C 27 Jul 17:42:29 17:46:16 74° 79° (E) 17:50:01 145.795 - 145.815
KKS-1 27 Jul 17:43:52 17:44:39 10° 283° (WNW) 17:45:27 437.445
CUTE-I 27 Jul 17:46:04 17:51:21 60° 77° (ENE) 17:56:37 437.470
JUGNU 27 Jul 17:55:52 18:01:42 59° 339° (NNW) 18:07:34 437.505
KAITUO 1B 27 Jul 17:58:04 18:01:49 88° 260° (W) 18:05:30 145.475/437.950
STARS 27 Jul 18:04:25 18:07:02 16° 282° (WNW) 18:09:38 437.465
LilacSat-2 27 Jul 18:09:10 18:12:40 35° 258° (WSW) 18:16:09 437.200
YUBILEINY 27 Jul 18:16:14 18:24:47 55° 273° (W) 18:33:20 435.215
XW-2F 27 Jul 18:18:39 18:21:56 29° 258° (WSW) 18:25:12 145.980 - 146.000
HO-68 27 Jul 18:29:38 18:36:26 45° 76° (ENE) 18:43:11 435.675
STRAND 1 27 Jul 18:36:07 18:40:44 35° 103° (ESE) 18:45:22 437.568
CUTE 1.7 + AOD 2 27 Jul 19:00:07 19:04:20 84° 259° (W) 19:08:31 437.475
SRMSAT 27 Jul 19:01:09 19:07:00 54° 159° (SSE) 19:12:52 437.500
CUBEBUG 2 27 Jul 19:06:43 19:11:21 51° 79° (E) 19:15:55 437.445
SEEDS 27 Jul 19:07:14 19:11:22 66° 79° (E) 19:15:28 437.485
AO-73 27 Jul 19:12:29 19:13:53 11° 79° (ENE) 19:15:16 145.935
NO-84 27 Jul 19:26:57 19:31:10 59° 239° (WSW) 19:35:29 435.350 FM
AAUSAT CUBESAT 2 27 Jul 19:42:42 19:46:48 79° 77° (ENE) 19:50:52 437.432
JUGNU 27 Jul 19:46:17 19:50:57 24° 343° (NNW) 19:55:39 437.505
XW-2A 27 Jul 19:50:08 19:52:43 20° 259° (WSW) 19:55:16 145.665 - 145.685
UWE-3 27 Jul 19:59:08 20:03:44 58° 259° (WSW) 20:08:15 435.000/436.395/437.385
ZACube-1 27 Jul 20:06:48 20:11:22 84° 79° (ENE) 20:15:51 437.345
STRAND 1 27 Jul 20:17:19 20:19:38 13° 283° (WNW) 20:21:56 437.568
HO-68 27 Jul 20:18:57 20:23:48 20° 255° (WSW) 20:28:39 435.675
DELFI C3 27 Jul 20:23:15 20:24:20 11° 78° (ENE) 20:25:25 145.870
Oscar 11 27 Jul 20:28:16 20:32:36 81° 258° (WSW) 20:36:53 .
AO-73 27 Jul 20:45:49 20:49:51 31° 258° (WSW) 20:53:48 145.935
FO-29 27 Jul 20:49:36 20:55:12 43° 101° (ESE) 21:00:18 435.910
AO-85 27 Jul 20:50:05 20:52:26 14° 70° (ENE) 20:54:49 145.980
SRMSAT 27 Jul 20:50:22 20:56:14 56° 339° (NNW) 21:02:07 437.500
PRISM 27 Jul 20:53:58 20:56:15 14° 102° (ESE) 20:58:32 437.425
TIGRISAT 27 Jul 20:54:00 20:56:46 17° 102° (ESE) 20:59:34 435.000
M-CUBED/EXP-1 PRIME 27 Jul 21:33:07 21:36:35 22° 105° (ESE) 21:39:56 437.505
BEESAT 3 27 Jul 21:35:32 21:39:15 45° 68° (ENE) 21:42:55 437.485
JUGNU 27 Jul 21:38:28 21:40:44 12° 351° (N) 21:43:03 437.505
EO-88 27 Jul 21:40:51 21:44:30 69° 259° (WSW) 21:48:06 145.990 - 145.960
UNISAT 6 27 Jul 21:45:37 21:49:49 70° 282° (WNW) 21:54:05 437.425
DELFI C3 27 Jul 21:55:43 21:58:49 23° 258° (WSW) 22:01:56 145.870
BEESAT 2 27 Jul 22:21:43 22:25:34 49° 69° (ENE) 22:29:21 435.950
AIST 2D 27 Jul 22:24:09 22:26:56 22° 101° (ESE) 22:29:43 435.315
PRISM 27 Jul 22:28:09 22:31:15 21° 282° (WNW) 22:34:21 437.425
AO-85 27 Jul 22:28:13 22:32:32 33° 247° (WSW) 22:37:07 145.980
TIGRISAT 27 Jul 22:30:19 22:33:12 18° 282° (WNW) 22:36:07 435.000
FO-29 27 Jul 22:37:28 22:39:49 12° 286° (WNW) 22:42:06 435.910
SRMSAT 27 Jul 22:41:06 22:45:41 22° 343° (NNW) 22:50:15 437.500
DUCHIFAT 1 27 Jul 23:04:45 23:08:07 24° 102° (ESE) 23:11:29 145.980
SPROUT 27 Jul 23:05:08 23:06:26 11° 78° (ENE) 23:07:45 437.525
M-CUBED/EXP-1 PRIME 27 Jul 23:07:30 23:10:41 19° 287° (WNW) 23:13:48 437.505
LO-87 27 Jul 23:09:22 23:12:42 35° 259° (WSW) 23:16:02 145.935 - 145.965
POLYITAN 1 27 Jul 23:11:03 23:14:58 41° 102° (ESE) 23:18:56 437.675
QB50P2 27 Jul 23:24:02 23:28:13 76° 102° (ESE) 23:32:25 145.880/145.840
NANOSAT C BR1 27 Jul 23:33:08 23:37:18 80° 103° (ESE) 23:41:28 145.865
EO-79 27 Jul 23:35:01 23:39:11 83° 283° (WNW) 23:43:23 145.935-145.965
ESTCUBE 1 27 Jul 23:36:34 23:40:42 37° 258° (WSW) 23:44:49 437.505/2401.250
DX 1 28 Jul 00:07:02 00:09:34 15° 78° (ENE) 00:12:04 434.975-435.025
VELOX 1 28 Jul 00:09:08 00:13:32 84° 80° (E) 00:17:56 145.980
RS-15 28 Jul 00:11:33 00:20:41 27° 67° (ENE) 00:29:26 29.354- 29.394
SRMSAT 28 Jul 00:33:40 00:35:40 12° 352° (N) 00:37:40 437.500
SPROUT 28 Jul 00:38:22 00:42:04 28° 258° (WSW) 00:45:45 437.525
Oscar 19 28 Jul 00:38:34 00:43:14 34° 103° (ESE) 00:47:55 437.125/150
DUCHIFAT 1 28 Jul 00:41:51 00:43:31 12° 282° (WNW) 00:45:10 145.980
UKube-1 28 Jul 00:42:21 00:46:04 28° 78° (ENE) 00:49:46 .
BUGSAT 1 28 Jul 00:56:48 01:00:25 33° 282° (WNW) 01:04:03 437.445
JUGNU 28 Jul 01:17:42 01:21:03 15° 12° (NNE) 01:24:24 437.505
50 SAT 28 Jul 01:18:55 01:21:20 19° 258° (WSW) 01:23:46 437.505
O/OREOS (USA 219) 28 Jul 01:19:46 01:24:13 61° 256° (WSW) 01:28:44 437.305
Gurwin Techsat 1B 28 Jul 01:27:36 01:32:54 78° 103° (ESE) 01:38:13 435.225
DX 1 28 Jul 01:42:06 01:45:28 22° 258° (WSW) 01:48:50 434.975-435.025
BEESAT 28 Jul 01:48:55 01:51:03 13° 77° (ENE) 01:53:11 436.000
PCSat 28 Jul 01:49:13 01:53:45 27° 110° (ESE) 01:58:17 145.827
ITUPSAT 1 28 Jul 02:02:50 02:06:19 20° 78° (ENE) 02:09:47 437.325
Oscar 19 28 Jul 02:19:35 02:22:16 14° 283° (WNW) 02:24:58 437.125/150
UKube-1 28 Jul 02:20:28 02:21:48 11° 257° (WSW) 02:23:08 .
MOZHAYETS 4 28 Jul 02:21:38 02:25:22 24° 78° (ENE) 02:29:04
RS-15 28 Jul 02:21:50 02:32:41 51° 250° (WSW) 02:43:09 29.354- 29.394
ITAMSAT 1 28 Jul 02:36:41 02:41:15 32° 103° (ESE) 02:45:50 435.822/435.867
AO-7 28 Jul 02:48:45 02:56:51 57° 106° (ESE) 03:04:54 .
JUGNU 28 Jul 03:05:18 03:10:37 33° 19° (NNE) 03:15:54 437.505
CUBESAT XI-V 28 Jul 03:06:49 03:08:02 11° 78° (ENE) 03:09:14 437.345
Tancredo 1 28 Jul 03:20:10 03:22:54 35° 55° (NE) 03:25:40 437.200
BEESAT 28 Jul 03:24:18 03:28:32 32° 257° (WSW) 03:32:46 436.000
SO-50 28 Jul 03:29:00 03:33:38 80° 113° (ESE) 03:38:11 436.795
PCSat 28 Jul 03:33:04 03:36:52 19° 290° (WNW) 03:40:40 145.827
ITUPSAT 1 28 Jul 03:40:16 03:43:52 21° 257° (WSW) 03:47:27 437.325
ISS 28 Jul 03:41:53 03:43:56 16° 54° (NE) 03:45:59 437.550
MOZHAYETS 4 28 Jul 03:59:31 04:02:14 16° 258° (WSW) 04:04:57
SRMSAT 28 Jul 04:12:47 04:16:14 16° 13° (NNE) 04:19:41 437.500
KKS-1 28 Jul 04:16:28 04:20:46 49° 78° (ENE) 04:25:04 437.445
ITAMSAT 1 28 Jul 04:17:33 04:20:26 15° 283° (WNW) 04:23:20 435.822/435.867
nSIGHT-1 28 Jul 04:19:57 04:23:09 68° 55° (NE) 04:26:23 .
STARS 28 Jul 04:37:49 04:41:42 30° 78° (ENE) 04:45:34 437.465
CUBESAT XI-V 28 Jul 04:41:00 04:45:07 33° 258° (WSW) 04:49:13 437.345
AO-7 28 Jul 04:43:56 04:49:12 19° 287° (WNW) 04:54:29 .
CUTE-I 28 Jul 04:49:36 04:50:52 11° 103° (ESE) 04:52:08 437.470
JUGNU 28 Jul 04:53:46 04:59:45 88° 26° (NNE) 05:05:41 437.505
YUBILEINY 28 Jul 04:54:03 05:01:51 37° 87° (E) 05:09:37 435.215
XW-2D 28 Jul 05:09:11 05:12:05 21° 102° (ESE) 05:15:00 145.860 - 145.880
DOVE 4 28 Jul 05:14:12 05:19:06 83° 282° (WNW) 05:23:43 437.250
ISS 28 Jul 05:18:11 05:20:12 15° 234° (SW) 05:22:14 437.550
XW-2B 28 Jul 05:18:56 05:22:14 28° 102° (ESE) 05:25:33 145.730 - 145.750
NUDT-PHONESAT 28 Jul 05:31:25 05:34:41 30° 101° (ESE) 05:37:59 437.300
XW-2C 28 Jul 05:36:00 05:39:43 56° 101° (ESE) 05:43:28 145.795 - 145.815
KAITUO 1B 28 Jul 05:50:05 05:53:49 67° 102° (ESE) 05:57:35 145.475/437.950
SRMSAT 28 Jul 06:00:33 06:05:53 35° 19° (NNE) 06:11:14 437.500
LilacSat-2 28 Jul 06:03:09 06:06:47 44° 281° (W) 06:10:29 437.200
XW-2F 28 Jul 06:11:24 06:14:55 37° 281° (W) 06:18:28 145.980 - 146.000
STARS 28 Jul 06:16:24 06:17:45 11° 257° (WSW) 06:19:05 437.465
HO-68 28 Jul 06:21:26 06:27:55 38° 105° (ESE) 06:34:23 435.675
CUTE-I 28 Jul 06:25:33 06:30:36 46° 283° (WNW) 06:35:41 437.470
JUGNU 28 Jul 06:43:32 06:48:51 34° 199° (SSW) 06:54:08 437.505
XW-2D 28 Jul 06:44:48 06:46:00 11° 281° (W) 06:47:12 145.860 - 145.880
YUBILEINY 28 Jul 06:51:16 06:58:14 27° 267° (W) 07:05:15 435.215
CUTE 1.7 + AOD 2 28 Jul 07:06:12 07:10:26 68° 282° (WNW) 07:14:42 437.475
STRAND 1 28 Jul 07:08:11 07:13:22 89° 262° (W) 07:18:31 437.568
NO-84 28 Jul 07:11:59 07:14:50 60° 302° (WNW) 07:17:37 435.350 FM
SEEDS 28 Jul 07:12:08 07:16:22 79° 101° (ESE) 07:20:38 437.485
CUBEBUG 2 28 Jul 07:19:19 07:23:25 74° 101° (ESE) 07:27:35 437.445
AO-73 28 Jul 07:20:48 07:22:57 14° 102° (ESE) 07:25:06 145.935
XW-2A 28 Jul 07:31:55 07:35:04 39° 281° (W) 07:38:14 145.665 - 145.685
AAUSAT CUBESAT 2 28 Jul 07:45:53 07:50:04 89° 85° (E) 07:54:16 437.432
SRMSAT 28 Jul 07:49:12 07:55:08 86° 200° (SSW) 08:01:05 437.500
HO-68 28 Jul 08:09:54 08:15:18 23° 285° (WNW) 08:20:44 435.675
UWE-3 28 Jul 08:10:40 08:14:29 37° 281° (WNW) 08:18:23 435.000/436.395/437.385
ZACube-1 28 Jul 08:16:37 08:20:44 70° 281° (W) 08:24:58 437.345
FO-29 28 Jul 08:20:24 08:26:17 28° 75° (ENE) 08:32:32 435.910
DELFI C3 28 Jul 08:21:32 08:22:25 11° 102° (ESE) 08:23:17 145.870
JUGNU 28 Jul 08:35:00 08:38:21 15° 193° (SSW) 08:41:42 437.505
Oscar 11 28 Jul 08:36:51 08:41:06 60° 282° (WNW) 08:45:24 .
AO-73 28 Jul 08:55:41 08:58:54 22° 281° (W) 09:02:08 145.935
PRISM 28 Jul 08:56:19 08:58:42 15° 78° (ENE) 09:01:06 437.425
AO-85 28 Jul 09:02:24 09:05:51 22° 114° (ESE) 09:09:06 145.980
TIGRISAT 28 Jul 09:05:51 09:09:55 29° 78° (ENE) 09:13:56 435.000
BEESAT 3 28 Jul 09:26:56 09:30:38 45° 112° (ESE) 09:34:25 437.485
EO-88 28 Jul 09:30:25 09:34:03 76° 101° (E) 09:37:43 145.990 - 145.960
M-CUBED/EXP-1 PRIME 28 Jul 09:33:12 09:34:56 13° 73° (ENE) 09:36:43 437.505
SRMSAT 28 Jul 09:39:12 09:44:25 32° 199° (SSW) 09:49:39 437.500
DELFI C3 28 Jul 09:53:37 09:56:54 25° 281° (WNW) 10:00:11 145.870
UNISAT 6 28 Jul 09:58:37 10:03:08 46° 258° (WSW) 10:07:36 437.425
FO-29 28 Jul 10:04:44 10:10:55 35° 258° (WSW) 10:17:36 435.910
AIST 2D 28 Jul 10:11:15 10:12:55 13° 79° (E) 10:14:35 435.315
BEESAT 2 28 Jul 10:14:30 10:18:17 51° 112° (ESE) 10:22:06 435.950
ESTCUBE 1 28 Jul 10:15:31 10:18:06 15° 102° (ESE) 10:20:40 437.505/2401.250
PRISM 28 Jul 10:30:51 10:33:43 19° 258° (WSW) 10:36:35 437.425
AO-85 28 Jul 10:43:28 10:45:57 15° 290° (WNW) 10:48:21 145.980
TIGRISAT 28 Jul 10:43:55 10:46:18 14° 258° (WSW) 10:48:39 435.000
LO-87 28 Jul 10:57:01 11:00:30 58° 281° (WNW) 11:03:59 145.935 - 145.965
M-CUBED/EXP-1 PRIME 28 Jul 11:07:27 11:09:09 13° 256° (WSW) 11:10:53 437.505
DUCHIFAT 1 28 Jul 11:09:44 11:13:26 29° 78° (ENE) 11:17:08 145.980
SPROUT 28 Jul 11:11:11 11:13:23 14° 102° (ESE) 11:15:34 437.525
POLYITAN 1 28 Jul 11:17:01 11:21:12 52° 79° (ENE) 11:25:22 437.675
QB50P2 28 Jul 11:30:10 11:34:28 86° 259° (WSW) 11:38:44 145.880/145.840
SRMSAT 28 Jul 11:30:54 11:34:09 15° 192° (SSW) 11:37:24 437.500
NANOSAT C BR1 28 Jul 11:38:40 11:42:57 84° 260° (W) 11:47:12 145.865
EO-79 28 Jul 11:40:58 11:45:13 67° 258° (WSW) 11:49:27 145.935-145.965
AIST 2D 28 Jul 11:43:52 11:45:51 14° 259° (WSW) 11:47:50 435.315
ESTCUBE 1 28 Jul 11:50:56 11:54:36 25° 282° (WNW) 11:58:18 437.505/2401.250
RS-15 28 Jul 11:53:14 12:01:40 23° 111° (ESE) 12:10:16 29.354- 29.394
DX 1 28 Jul 12:15:49 12:19:04 21° 102° (ESE) 12:22:19 434.975-435.025
JUGNU 28 Jul 12:16:44 12:18:34 11° 172° (S) 12:20:23 437.505
VELOX 1 28 Jul 12:20:33 12:24:57 67° 282° (WNW) 12:29:21 145.980
Gurwin Techsat 1B 28 Jul 12:29:01 12:31:46 14° 77° (ENE) 12:34:30 435.225
SPROUT 28 Jul 12:45:42 12:49:00 22° 282° (WNW) 12:52:18 437.525
DUCHIFAT 1 28 Jul 12:48:00 12:48:49 10° 258° (WSW) 12:49:38 145.980
UKube-1 28 Jul 12:50:22 12:54:20 37° 102° (ESE) 12:58:20 .
BUGSAT 1 28 Jul 12:59:35 13:03:23 32° 258° (WSW) 13:07:10 437.445
50 SAT 28 Jul 13:00:46 13:03:57 37° 281° (WNW) 13:07:07 437.505
Oscar 19 28 Jul 13:11:51 13:16:59 90° 142° (SE) 13:22:06 437.125/150
O/OREOS (USA 219) 28 Jul 13:31:16 13:35:22 34° 284° (WNW) 13:39:26 437.305
DX 1 28 Jul 13:52:14 13:54:58 16° 282° (WNW) 13:57:43 434.975-435.025
RS-15 28 Jul 14:02:09 14:13:38 63° 291° (WNW) 14:25:41 29.354- 29.394
JUGNU 28 Jul 14:03:52 14:08:21 22° 163° (SSE) 14:12:49 437.505
Gurwin Techsat 1B 28 Jul 14:06:35 14:11:25 36° 257° (WSW) 14:16:15 435.225
BEESAT 28 Jul 14:08:55 14:12:45 25° 103° (ESE) 14:16:36 436.000
ITUPSAT 1 28 Jul 14:24:01 14:28:25 38° 103° (ESE) 14:32:49 437.325
PCSat 28 Jul 14:24:28 14:29:52 87° 71° (ENE) 14:35:16 145.827
MOZHAYETS 4 28 Jul 14:37:34 14:41:50 40° 102° (ESE) 14:46:10
Tancredo 1 28 Jul 14:47:02 14:48:57 16° 126° (SE) 14:50:52 437.200
ITAMSAT 1 28 Jul 15:11:01 15:16:15 88° 80° (E) 15:21:29 435.822/435.867
SRMSAT 28 Jul 15:12:21 15:14:46 12° 171° (S) 15:17:10 437.500
AO-7 28 Jul 15:14:50 15:23:12 89° 74° (ENE) 15:31:34 .
CUBESAT XI-V 28 Jul 15:22:41 15:26:07 20° 102° (ESE) 15:29:35 437.345
SO-50 28 Jul 15:41:29 15:45:59 54° 248° (WSW) 15:50:34 436.795
BEESAT 28 Jul 15:47:16 15:50:15 17° 283° (WNW) 15:53:15 436.000
nSIGHT-1 28 Jul 15:53:32 15:56:36 37° 125° (SE) 15:59:38 .
